Time,TemperatureF,DewpointF,PressureIn,WindDirection,WindDirectionDegrees,WindSpeedMPH,WindSpeedGustMPH,Humidity,HourlyPrecipIn,Conditions,Clouds,dailyrainin,SoftwareType,DateUTC
2013-04-22 00:03:00,41.0,28.0,30.34,SE,127,6.0,12.0,59,0.00,,,0.00,,2013-04-22 04:03:00,
2013-04-22 00:12:00,41.0,28.0,30.34,SE,127,6.0,12.0,59,0.00,,,0.00,,2013-04-22 04:12:00,
2013-04-22 00:23:00,41.0,29.0,30.33,SSE,153,7.0,13.0,61,0.00,,,0.00,,2013-04-22 04:23:00,
2013-04-22 00:33:00,40.0,28.0,30.33,SE,136,5.0,13.0,62,0.00,,,0.00,,2013-04-22 04:33:00,
2013-04-22 00:43:00,40.0,28.0,30.33,SE,136,5.0,13.0,62,0.00,,,0.00,,2013-04-22 04:43:00,
2013-04-22 00:53:00,40.0,29.0,30.32,SSE,151,6.0,13.0,64,0.00,,,0.00,,2013-04-22 04:53:00,
2013-04-22 01:02:00,40.0,29.0,30.32,SE,125,4.0,10.0,64,0.00,,,0.00,,2013-04-22 05:02:00,
2013-04-22 01:12:00,39.0,28.0,30.32,SE,134,5.0,9.0,65,0.00,,,0.00,,2013-04-22 05:12:00,
2013-04-22 01:22:00,39.0,28.0,30.32,SE,134,5.0,9.0,65,0.00,,,0.00,,2013-04-22 05:22:00,
2013-04-22 01:32:00,39.0,29.0,30.31,SE,138,5.0,10.0,66,0.00,,,0.00,,2013-04-22 05:32:00,
2013-04-22 01:42:00,39.0,29.0,30.31,SE,138,5.0,10.0,66,0.00,,,0.00,,2013-04-22 05:42:00,
2013-04-22 01:52:00,39.0,29.0,30.31,SE,138,6.0,11.0,66,0.00,,,0.00,,2013-04-22 05:52:00,
2013-04-22 02:02:00,40.0,29.0,30.31,SE,127,7.0,14.0,65,0.00,,,0.00,,2013-04-22 06:02:00,
2013-04-22 02:12:00,40.0,29.0,30.31,SE,127,7.0,14.0,65,0.00,,,0.00,,2013-04-22 06:12:00,
2013-04-22 02:21:00,40.0,29.0,30.30,SE,134,10.0,17.0,64,0.00,,,0.00,,2013-04-22 06:21:00,
2013-04-22 02:32:00,41.0,30.0,30.30,SE,138,5.0,13.0,65,0.00,,,0.00,,2013-04-22 06:32:00,
2013-04-22 02:42:00,41.0,30.0,30.30,SE,138,5.0,13.0,65,0.00,,,0.00,,2013-04-22 06:42:00,
2013-04-22 02:52:00,40.0,29.0,30.29,SSE,148,7.0,14.0,65,0.00,,,0.00,,2013-04-22 06:52:00,
2013-04-22 03:01:00,40.0,29.0,30.29,SSE,147,5.0,12.0,65,0.00,,,0.00,,2013-04-22 07:01:00,
2013-04-22 03:12:00,40.0,29.0,30.29,SSE,147,5.0,12.0,65,0.00,,,0.00,,2013-04-22 07:12:00,
2013-04-22 03:21:00,40.0,30.0,30.29,SE,142,4.0,11.0,66,0.00,,,0.00,,2013-04-22 07:21:00,
2013-04-22 03:32:00,40.0,29.0,30.28,SE,145,10.0,14.0,65,0.00,,,0.00,,2013-04-22 07:32:00,
2013-04-22 03:42:00,40.0,29.0,30.28,SE,145,10.0,14.0,65,0.00,,,0.00,,2013-04-22 07:42:00,
2013-04-22 03:52:00,40.0,29.0,30.27,South,186,2.0,14.0,64,0.00,,,0.00,,2013-04-22 07:52:00,
2013-04-22 04:02:00,40.0,28.0,30.27,SE,128,2.0,12.0,63,0.00,,,0.00,,2013-04-22 08:02:00,
2013-04-22 04:11:00,40.0,28.0,30.28,SE,136,5.0,13.0,63,0.00,,,0.00,,2013-04-22 08:11:00,
2013-04-22 04:22:00,40.0,28.0,30.28,SE,136,5.0,13.0,63,0.00,,,0.00,,2013-04-22 08:22:00,
2013-04-22 04:32:00,40.0,28.0,30.27,SSE,160,6.0,10.0,63,0.00,,,0.00,,2013-04-22 08:32:00,
2013-04-22 04:42:00,40.0,28.0,30.27,SSE,160,6.0,10.0,63,0.00,,,0.00,,2013-04-22 08:42:00,
2013-04-22 04:53:00,40.0,28.0,30.27,SSW,196,2.0,10.0,63,0.00,,,0.00,,2013-04-22 08:53:00,
2013-04-22 05:01:00,40.0,28.0,30.28,SSE,155,6.0,12.0,63,0.00,,,0.00,,2013-04-22 09:01:00,
2013-04-22 05:11:00,40.0,28.0,30.28,SSE,155,6.0,12.0,63,0.00,,,0.00,,2013-04-22 09:11:00,
2013-04-22 05:21:00,40.0,28.0,30.27,SSE,160,8.0,12.0,63,0.00,,,0.00,,2013-04-22 09:21:00,
2013-04-22 05:33:00,40.0,28.0,30.27,SSE,151,3.0,12.0,63,0.00,,,0.00,,2013-04-22 09:33:00,
2013-04-22 05:42:00,40.0,28.0,30.27,SSE,151,3.0,12.0,63,0.00,,,0.00,,2013-04-22 09:42:00,
2013-04-22 05:52:00,40.0,28.0,30.26,SSE,167,0.0,10.0,63,0.00,,,0.00,,2013-04-22 09:52:00,
2013-04-22 06:03:00,40.0,28.0,30.27,South,173,0.0,5.0,63,0.00,,,0.00,,2013-04-22 10:03:00,
2013-04-22 06:12:00,40.0,28.0,30.27,South,173,0.0,5.0,63,0.00,,,0.00,,2013-04-22 10:12:00,
2013-04-22 06:22:00,39.0,28.0,30.29,SSE,153,2.0,6.0,64,0.00,,,0.00,,2013-04-22 10:22:00,
2013-04-22 06:32:00,39.0,28.0,30.28,ESE,122,2.0,5.0,65,0.00,,,0.00,,2013-04-22 10:32:00,
2013-04-22 06:42:00,39.0,28.0,30.28,ESE,122,2.0,5.0,65,0.00,,,0.00,,2013-04-22 10:42:00,
2013-04-22 06:53:00,39.0,28.0,30.27,ESE,119,0.0,0.0,65,0.00,,,0.00,,2013-04-22 10:53:00,
2013-04-22 07:02:00,39.0,29.0,30.29,ESE,112,0.0,4.0,66,0.00,,,0.00,,2013-04-22 11:02:00,
2013-04-22 07:12:00,38.0,28.0,30.29,SE,137,1.0,6.0,68,0.00,,,0.00,,2013-04-22 11:12:00,
2013-04-22 07:22:00,38.0,28.0,30.29,SE,137,1.0,6.0,68,0.00,,,0.00,,2013-04-22 11:22:00,
2013-04-22 07:32:00,39.0,29.0,30.28,ESE,123,0.0,2.0,67,0.00,,,0.00,,2013-04-22 11:32:00,
2013-04-22 07:42:00,39.0,29.0,30.28,ESE,123,0.0,2.0,67,0.00,,,0.00,,2013-04-22 11:42:00,
2013-04-22 07:52:00,39.0,29.0,30.28,SE,134,0.0,0.0,67,0.00,,,0.00,,2013-04-22 11:52:00,
2013-04-22 08:02:00,39.0,28.0,30.29,SSE,149,5.0,7.0,65,0.00,,,0.00,,2013-04-22 12:02:00,
2013-04-22 08:12:00,40.0,29.0,30.28,SSE,150,3.0,9.0,65,0.00,,,0.00,,2013-04-22 12:12:00,
2013-04-22 08:21:00,40.0,29.0,30.28,SSE,150,3.0,9.0,65,0.00,,,0.00,,2013-04-22 12:21:00,
2013-04-22 08:32:00,41.0,29.0,30.29,SSE,153,3.0,11.0,63,0.00,,,0.00,,2013-04-22 12:32:00,
2013-04-22 08:42:00,41.0,29.0,30.29,SSE,153,3.0,11.0,63,0.00,,,0.00,,2013-04-22 12:42:00,
2013-04-22 08:52:00,42.0,30.0,30.29,South,182,5.0,13.0,62,0.00,,,0.00,,2013-04-22 12:52:00,
2013-04-22 09:01:00,43.0,30.0,30.29,SSE,150,5.0,12.0,60,0.00,,,0.00,,2013-04-22 13:01:00,
2013-04-22 09:11:00,43.0,30.0,30.29,SSE,150,5.0,12.0,60,0.00,,,0.00,,2013-04-22 13:11:00,
2013-04-22 09:22:00,44.0,30.0,30.29,SSE,157,5.0,16.0,58,0.00,,,0.00,,2013-04-22 13:22:00,
2013-04-22 09:32:00,45.0,31.0,30.28,South,178,7.0,13.0,57,0.00,,,0.00,,2013-04-22 13:32:00,
2013-04-22 09:42:00,45.0,31.0,30.28,South,178,7.0,13.0,57,0.00,,,0.00,,2013-04-22 13:42:00,
2013-04-22 09:53:00,47.0,32.0,30.28,SSW,196,8.0,16.0,55,0.00,,,0.00,,2013-04-22 13:53:00,
2013-04-22 10:02:00,47.0,31.0,30.28,SSE,158,5.0,16.0,54,0.00,,,0.00,,2013-04-22 14:02:00,
2013-04-22 10:11:00,49.0,32.0,30.28,SSW,203,3.0,16.0,52,0.00,,,0.00,,2013-04-22 14:11:00,
2013-04-22 10:21:00,49.0,32.0,30.28,SSW,203,3.0,16.0,52,0.00,,,0.00,,2013-04-22 14:21:00,
2013-04-22 10:33:00,49.0,32.0,30.27,SSW,192,7.0,15.0,52,0.00,,,0.00,,2013-04-22 14:33:00,
2013-04-22 10:42:00,49.0,32.0,30.27,SSW,192,7.0,15.0,52,0.00,,,0.00,,2013-04-22 14:42:00,
2013-04-22 10:52:00,49.0,32.0,30.27,SSE,167,5.0,18.0,51,0.00,,,0.00,,2013-04-22 14:52:00,
2013-04-22 11:02:00,50.0,33.0,30.27,South,173,8.0,15.0,51,0.00,,,0.00,,2013-04-22 15:02:00,
2013-04-22 11:12:00,50.0,33.0,30.27,South,173,8.0,15.0,51,0.00,,,0.00,,2013-04-22 15:12:00,
2013-04-22 11:22:00,52.0,33.0,30.27,SSE,153,6.0,15.0,48,0.00,,,0.00,,2013-04-22 15:22:00,
2013-04-22 11:33:00,53.0,33.0,30.27,SSE,159,4.0,11.0,47,0.00,,,0.00,,2013-04-22 15:33:00,
2013-04-22 11:43:00,53.0,33.0,30.27,SSE,159,4.0,11.0,47,0.00,,,0.00,,2013-04-22 15:43:00,
2013-04-22 11:53:00,52.0,33.0,30.27,SSW,192,3.0,13.0,49,0.00,,,0.00,,2013-04-22 15:53:00,
2013-04-22 12:03:00,53.0,34.0,30.27,SW,221,5.0,10.0,48,0.00,,,0.00,,2013-04-22 16:03:00,
2013-04-22 12:12:00,53.0,34.0,30.27,SW,221,5.0,10.0,48,0.00,,,0.00,,2013-04-22 16:12:00,
2013-04-22 12:23:00,55.0,35.0,30.26,South,187,5.0,14.0,46,0.00,,,0.00,,2013-04-22 16:23:00,
2013-04-22 12:33:00,56.0,35.0,30.26,SE,146,4.0,10.0,45,0.00,,,0.00,,2013-04-22 16:33:00,
2013-04-22 12:42:00,56.0,35.0,30.26,SE,146,4.0,10.0,45,0.00,,,0.00,,2013-04-22 16:42:00,
2013-04-22 12:52:00,57.0,36.0,30.25,SSW,198,0.0,14.0,45,0.00,,,0.00,,2013-04-22 16:52:00,
2013-04-22 13:02:00,57.0,35.0,30.24,SE,144,3.0,11.0,43,0.00,,,0.00,,2013-04-22 17:02:00,
2013-04-22 13:12:00,57.0,35.0,30.24,SE,144,3.0,11.0,43,0.00,,,0.00,,2013-04-22 17:12:00,
2013-04-22 13:22:00,58.0,35.0,30.24,SE,145,9.0,12.0,42,0.00,,,0.00,,2013-04-22 17:22:00,
2013-04-22 13:32:00,59.0,38.0,30.24,SSW,211,1.0,7.0,46,0.00,,,0.00,,2013-04-22 17:32:00,
2013-04-22 13:42:00,59.0,38.0,30.24,SSW,211,1.0,7.0,46,0.00,,,0.00,,2013-04-22 17:42:00,
2013-04-22 13:52:00,60.0,37.0,30.23,ESE,119,0.0,9.0,43,0.00,,,0.00,,2013-04-22 17:52:00,
2013-04-22 14:01:00,59.0,37.0,30.22,SE,133,0.0,11.0,43,0.00,,,0.00,,2013-04-22 18:01:00,
2013-04-22 14:12:00,59.0,37.0,30.22,SE,133,0.0,11.0,43,0.00,,,0.00,,2013-04-22 18:12:00,
2013-04-22 14:22:00,60.0,37.0,30.21,South,188,1.0,11.0,43,0.00,,,0.00,,2013-04-22 18:22:00,
2013-04-22 14:32:00,59.0,35.0,30.21,South,169,2.0,11.0,40,0.00,,,0.00,,2013-04-22 18:32:00,
2013-04-22 14:42:00,59.0,35.0,30.21,South,169,2.0,11.0,40,0.00,,,0.00,,2013-04-22 18:42:00,
2013-04-22 14:52:00,61.0,35.0,30.21,South,169,3.0,12.0,37,0.00,,,0.00,,2013-04-22 18:52:00,
2013-04-22 15:01:00,62.0,35.0,30.20,SW,223,2.0,6.0,37,0.00,,,0.00,,2013-04-22 19:01:00,
2013-04-22 15:12:00,62.0,35.0,30.20,SW,223,2.0,6.0,37,0.00,,,0.00,,2013-04-22 19:12:00,
2013-04-22 15:22:00,60.0,37.0,30.19,NNW,338,2.0,8.0,43,0.00,,,0.00,,2013-04-22 19:22:00,
2013-04-22 15:32:00,60.0,37.0,30.19,NW,311,4.0,7.0,42,0.00,,,0.00,,2013-04-22 19:32:00,
2013-04-22 15:42:00,60.0,37.0,30.19,NW,311,4.0,7.0,42,0.00,,,0.00,,2013-04-22 19:42:00,
2013-04-22 15:53:00,59.0,37.0,30.18,North,350,1.0,6.0,43,0.00,,,0.00,,2013-04-22 19:53:00,
2013-04-22 16:02:00,56.0,37.0,30.18,NW,311,5.0,12.0,48,0.00,,,0.00,,2013-04-22 20:02:00,
2013-04-22 16:11:00,56.0,37.0,30.18,NW,311,5.0,12.0,48,0.00,,,0.00,,2013-04-22 20:11:00,
2013-04-22 16:22:00,55.0,37.0,30.18,NW,315,3.0,9.0,50,0.00,,,0.00,,2013-04-22 20:22:00,
2013-04-22 16:32:00,55.0,36.0,30.17,WNW,286,10.0,13.0,49,0.00,,,0.00,,2013-04-22 20:32:00,
2013-04-22 16:42:00,55.0,36.0,30.17,WNW,286,10.0,13.0,49,0.00,,,0.00,,2013-04-22 20:42:00,
2013-04-22 16:52:00,56.0,37.0,30.17,WNW,299,7.0,12.0,49,0.00,,,0.00,,2013-04-22 20:52:00,
2013-04-22 17:02:00,56.0,37.0,30.16,NW,313,6.0,14.0,48,0.00,,,0.00,,2013-04-22 21:02:00,
2013-04-22 17:12:00,56.0,37.0,30.15,NW,314,4.0,12.0,48,0.00,,,0.00,,2013-04-22 21:12:00,
2013-04-22 17:21:00,56.0,37.0,30.15,NW,314,4.0,12.0,48,0.00,,,0.00,,2013-04-22 21:21:00,
2013-04-22 17:32:00,55.0,36.0,30.14,WNW,298,2.0,10.0,49,0.00,,,0.00,,2013-04-22 21:32:00,
2013-04-22 17:43:00,55.0,36.0,30.14,WNW,298,2.0,10.0,49,0.00,,,0.00,,2013-04-22 21:43:00,
2013-04-22 17:53:00,54.0,36.0,30.14,West,267,0.0,7.0,50,0.00,,,0.00,,2013-04-22 21:53:00,
2013-04-22 18:03:00,54.0,36.0,30.14,WNW,294,2.0,10.0,50,0.00,,,0.00,,2013-04-22 22:03:00,
2013-04-22 18:12:00,54.0,36.0,30.14,WNW,294,2.0,10.0,50,0.00,,,0.00,,2013-04-22 22:12:00,
2013-04-22 18:22:00,53.0,36.0,30.14,WNW,301,1.0,12.0,52,0.00,,,0.00,,2013-04-22 22:22:00,
2013-04-22 18:33:00,53.0,36.0,30.13,WNW,301,7.0,11.0,53,0.00,,,0.00,,2013-04-22 22:33:00,
2013-04-22 18:42:00,53.0,36.0,30.13,WNW,301,7.0,11.0,53,0.00,,,0.00,,2013-04-22 22:42:00,
2013-04-22 18:52:00,53.0,37.0,30.13,WNW,292,0.0,0.0,54,0.00,,,0.00,,2013-04-22 22:52:00,
2013-04-22 19:02:00,55.0,38.0,30.12,WNW,298,0.0,0.0,52,0.00,,,0.00,,2013-04-22 23:02:00,
2013-04-22 19:11:00,55.0,38.0,30.12,NW,305,0.0,0.0,53,0.00,,,0.00,,2013-04-22 23:11:00,
2013-04-22 19:21:00,55.0,38.0,30.12,NW,305,0.0,0.0,53,0.00,,,0.00,,2013-04-22 23:21:00,
2013-04-22 19:33:00,54.0,38.0,30.12,NW,306,0.0,0.0,54,0.00,,,0.00,,2013-04-22 23:33:00,
2013-04-22 19:42:00,54.0,38.0,30.12,NW,306,0.0,0.0,54,0.00,,,0.00,,2013-04-22 23:42:00,
2013-04-22 19:52:00,52.0,37.0,30.11,West,263,4.0,5.0,57,0.00,,,0.00,,2013-04-22 23:52:00,
2013-04-22 20:02:00,48.0,36.0,30.12,West,278,5.0,12.0,64,0.00,,,0.00,,2013-04-23 00:02:00,
2013-04-22 20:12:00,48.0,36.0,30.12,West,278,5.0,12.0,64,0.00,,,0.00,,2013-04-23 00:12:00,
2013-04-22 20:21:00,46.0,36.0,30.12,WNW,293,0.0,9.0,68,0.00,,,0.00,,2013-04-23 00:21:00,
2013-04-22 20:32:00,44.0,36.0,30.12,WNW,297,0.0,0.0,72,0.00,,,0.00,,2013-04-23 00:32:00,
2013-04-22 20:42:00,44.0,36.0,30.12,WNW,297,0.0,0.0,72,0.00,,,0.00,,2013-04-23 00:42:00,
2013-04-22 20:51:00,44.0,36.0,30.11,WNW,288,0.0,0.0,74,0.00,,,0.00,,2013-04-23 00:51:00,
2013-04-22 21:01:00,43.0,36.0,30.11,SSE,155,0.0,0.0,77,0.00,,,0.00,,2013-04-23 01:01:00,
2013-04-22 21:11:00,43.0,36.0,30.11,SSE,155,0.0,0.0,77,0.00,,,0.00,,2013-04-23 01:11:00,
2013-04-22 21:21:00,42.0,35.0,30.11,SE,139,0.0,0.0,77,0.00,,,0.00,,2013-04-23 01:21:00,
2013-04-22 21:32:00,41.0,35.0,30.12,SE,146,0.0,0.0,79,0.00,,,0.00,,2013-04-23 01:32:00,
2013-04-22 21:42:00,41.0,35.0,30.12,SE,146,0.0,0.0,79,0.00,,,0.00,,2013-04-23 01:42:00,
2013-04-22 21:52:00,41.0,36.0,30.12,SE,146,0.0,0.0,81,0.00,,,0.00,,2013-04-23 01:52:00,
2013-04-22 22:02:00,40.0,35.0,30.12,SE,146,0.0,0.0,81,0.00,,,0.00,,2013-04-23 02:02:00,
2013-04-22 22:12:00,40.0,35.0,30.12,SE,146,0.0,0.0,81,0.00,,,0.00,,2013-04-23 02:12:00,
2013-04-22 22:21:00,39.0,34.0,30.12,SE,146,0.0,0.0,83,0.00,,,0.00,,2013-04-23 02:21:00,
2013-04-22 22:32:00,39.0,34.0,30.12,SE,146,0.0,0.0,83,0.00,,,0.00,,2013-04-23 02:32:00,
2013-04-22 22:42:00,39.0,34.0,30.12,SE,146,0.0,0.0,83,0.00,,,0.00,,2013-04-23 02:42:00,
2013-04-22 22:52:00,38.0,34.0,30.12,SE,146,0.0,0.0,84,0.00,,,0.00,,2013-04-23 02:52:00,
2013-04-22 23:01:00,38.0,34.0,30.12,SE,146,0.0,0.0,86,0.00,,,0.00,,2013-04-23 03:01:00,
2013-04-22 23:11:00,38.0,34.0,30.12,SE,146,0.0,0.0,86,0.00,,,0.00,,2013-04-23 03:11:00,
2013-04-22 23:21:00,37.0,34.0,30.11,SE,146,0.0,0.0,87,0.00,,,0.00,,2013-04-23 03:21:00,
2013-04-22 23:33:00,37.0,34.0,30.11,SE,146,0.0,0.0,88,0.00,,,0.00,,2013-04-23 03:33:00,
2013-04-22 23:43:00,37.0,34.0,30.11,SE,146,0.0,0.0,88,0.00,,,0.00,,2013-04-23 03:43:00,
2013-04-22 23:53:00,37.0,34.0,30.11,SE,146,0.0,0.0,88,0.00,,,0.00,,2013-04-23 03:53:00,